User: anonymous   Login
Location: Lawrence Hall of Science
(37.8785°N, 122.2415°W)
Time: 23:43:07
(UTC-08:00)
Language:

ARGOS - Orbit

View from above orbital plane
View from above orbital plane
View from above satellite
View from above satellite

Ground track
Ground track

The orbit data is extracted from the following two-line orbital elements,

1 25634U 99008A   18015.60158392 -.00000021  00000-0  10070-4 0  9991
2 25634  98.5913  77.3695 0009388 319.6500  40.3979 14.19325995978594
Epoch (UTC): 15 January 2018 14:26:16
Eccentricity: 0.0009388
inclination: 98.5913°
perigee height: 821 km
apogee height: 834 km
right ascension of ascending node: 77.3695°
argument of perigee: 319.6500°
revolutions per day: 14.19325995
mean anomaly at epoch: 40.3979°
orbit number at epoch: 97859

The dashed part of the orbit path shows where the satellite is in the earth's shadow,  

DLR